15 daagse weersverwachting Mo i Rana (NO)

  • Overzicht
  • Per uur
  • 15 dagen
  • Extra
  • Vergelijk
  • Kaarten
  • Dagkaart
  • Meer »
  • Info
  • Statistieken
  • Directe link
    Temp 6h Neerslag Wind  
Midzomernacht Vandaag
02:00
13°
 
3
08:00
13°
 
3
14:00
15°
 
5
20:00
12°
 
3
Midzomernacht Morgen
02:00
10°
 
1
08:00
12°
 
1
14:00
16°
0.5 mm
3
20:00
15°
 
2
Midzomernacht Woensdag 19 Jun
02:00
11°
 
2
08:00
12°
 
3
14:00
15°
5.3 mm
4
20:00
15°
10.9 mm
3
Locatie info
Region: Nordland
Latitude: 66.3106°N
Longitude: 14.1346°E
40 masl
Postcode: 8622
Temp/Neerslag /Baro Onweer/Dauwpunt
    Temp Baro 1h Neerslag Dauwpunt Wind UV Bewolking  
Midzomernacht Vandaag
02:00
13°
1010.3 hPa   9.5°
3
Windvlaag: 4.7 km/h
1%
03:00
13°
1010.6 hPa   9.5°
3
Windvlaag: 5 km/h
5%
04:00
12°
1010.8 hPa   9.1°
3
Windvlaag: 6.1 km/h
1%
05:00
12°
1011.2 hPa   8.6°
3
Windvlaag: 6.7 km/h
3%
06:00
12°
1011.2 hPa   8.3°
3
Windvlaag: 6.4 km/h
4%
07:00
12°
1011.2 hPa   8.0°
3
Windvlaag: 6 km/h
7%
08:00
13°
1011.3 hPa   7.6°
3
Windvlaag: 6.1 km/h
12%
09:00
13°
1011.3 hPa   7.1°
3
Windvlaag: 6.5 km/h
38%
10:00
14°
1011.4 hPa   6.7°
4
Windvlaag: 6.7 km/h
30%
11:00
14°
1011.3 hPa   6.3°
4
Windvlaag: 7.3 km/h
50%
12:00
15°
1011.3 hPa   6.2°
5
Windvlaag: 7.9 km/h
41%
13:00
15°
1011.5 hPa   6.0°
5
Windvlaag: 8 km/h
31%
14:00
15°
1011.6 hPa   6.0°
5
Windvlaag: 8.2 km/h
37%
15:00
15°
1011.7 hPa
18%
5.7°
5
Windvlaag: 8.2 km/h
73%
16:00
15°
1011.8 hPa
20%
6.0°
5
Windvlaag: 8.2 km/h
76%
17:00
13°
1011.8 hPa
20%
7.1°
5
Windvlaag: 8.5 km/h
78%
18:00
12°
1011.7 hPa
20%
7.8°
4
Windvlaag: 8.2 km/h
74%
19:00
12°
1011.4 hPa
23%
8.4°
4
Windvlaag: 7.1 km/h
82%
20:00
12°
1011.3 hPa
32%
8.7°
3
Windvlaag: 5.7 km/h
82%
21:00
11°
1011.2 hPa
30%
8.8°
2
Windvlaag: 4.3 km/h
68%
22:00
11°
1011.0 hPa   9.0°
2
Windvlaag: 3.2 km/h
64%
23:00
11°
1010.8 hPa   9.2°
1
Windvlaag: 1.9 km/h
53%
Midzomernacht Morgen
00:00
11°
1010.5 hPa   9.3°
1
Windvlaag: 1.6 km/h
70%
01:00
10°
1010.3 hPa   8.7°
1
Windvlaag: 2.1 km/h
54%
02:00
10°
1010.0 hPa   8.2°
1
Windvlaag: 2.7 km/h
30%
03:00
10°
Voelt als: 9.7°
1009.8 hPa   8.0°
1
Windvlaag: 3 km/h
42%
04:00
10°
1009.5 hPa   7.8°
1
Windvlaag: 3 km/h
32%
05:00
10°
1009.2 hPa
12%
7.8°
1
Windvlaag: 2.2 km/h
45%
06:00
11°
1009.0 hPa
14%
8.0°
1
Windvlaag: 2.1 km/h
54%
07:00
11°
1008.8 hPa
14%
7.8°
1
Windvlaag: 1.3 km/h
66%
08:00
12°
1008.6 hPa
18%
7.3°
1
Windvlaag: 2.1 km/h
25%
09:00
13°
1008.6 hPa 0.3 mm
79%
6.9°
2
Windvlaag: 3.9 km/h
34%
10:00
14°
1008.4 hPa 0.3 mm
80%
7.4°
3
Windvlaag: 4.6 km/h
53%
11:00
15°
1008.4 hPa
82%
7.0°
2
Windvlaag: 4.9 km/h
56%
12:00
15°
1008.2 hPa
77%
6.8°
3
Windvlaag: 6.1 km/h
59%
13:00
16°
1007.9 hPa
22%
6.4°
3
Windvlaag: 5.4 km/h
38%
14:00
16°
1007.6 hPa
18%
6.1°
3
Windvlaag: 5.2 km/h
54%
15:00
16°
1007.8 hPa
23%
7.8°
4
Windvlaag: 6.4 km/h
70%
16:00
15°
1007.9 hPa
20%
9.0°
3
Windvlaag: 6.2 km/h
28%
17:00
16°
1007.6 hPa
37%
7.9°
3
Windvlaag: 4.4 km/h
16%
18:00
16°
1007.4 hPa
37%
7.9°
3
Windvlaag: 5 km/h
15%
19:00
16°
1007.1 hPa
34%
7.6°
3
Windvlaag: 5.3 km/h
18%
20:00
15°
1007.0 hPa
37%
7.9°
2
Windvlaag: 5.3 km/h
37%
21:00
14°
1007.1 hPa
79%
7.6°
2
Windvlaag: 4.2 km/h
37%
22:00
14°
1007.1 hPa
76%
8.2°
2
Windvlaag: 5.7 km/h
23%
23:00
13°
1007.6 hPa
93%
8.3°
3
Windvlaag: 6 km/h
45%
Midzomernacht Woensdag 19 Jun
00:00
12°
1007.6 hPa
98%
8.6°
2
Windvlaag: 6.6 km/h
68%
01:00
12°
1007.7 hPa
100%
9.2°
2
Windvlaag: 6.7 km/h
85%
02:00
11°
1007.7 hPa
95%
9.6°
2
Windvlaag: 5.6 km/h
79%
03:00
11°
1007.7 hPa
48%
9.2°
2
Windvlaag: 3.6 km/h
75%
04:00
11°
1007.9 hPa
48%
9.0°
2
Windvlaag: 3.9 km/h
85%
05:00
11°
1007.8 hPa
90%
8.9°
3
Windvlaag: 6.5 km/h
78%
06:00
11°
1007.9 hPa
52%
9.1°
3
Windvlaag: 6.8 km/h
91%
07:00
11°
1008.1 hPa
54%
8.7°
3
Windvlaag: 5.6 km/h
96%
08:00
12°
1008.2 hPa
98%
8.4°
3
Windvlaag: 5.1 km/h
92%
09:00
13°
1009.0 hPa
100%
8.5°
4
Windvlaag: 7 km/h
76%
10:00
13°
1009.1 hPa
98%
8.3°
4
Windvlaag: 7.5 km/h
77%
11:00
14°
1009.5 hPa
100%
7.4°
4
Windvlaag: 7.5 km/h
71%
12:00
14°
1009.7 hPa
100%
6.7°
4
Windvlaag: 7.7 km/h
70%
13:00
15°
1009.8 hPa 2.7 mm
100%
6.2°
4
Windvlaag: 7.6 km/h
71%
14:00
15°
1009.9 hPa 2.6 mm
100%
6.1°
4
Windvlaag: 7.8 km/h
69%
15:00
15°
1010.1 hPa 2.7 mm
100%
7.0°
4
Windvlaag: 8.9 km/h
60%
16:00
15°
1010.3 hPa 2.7 mm
100%
8.2°
4
Windvlaag: 8.6 km/h
65%
17:00
15°
1010.4 hPa 2.9 mm
100%
9.0°
4
Windvlaag: 7.9 km/h
73%
18:00
15°
1010.5 hPa 2.7 mm
100%
9.7°
3
Windvlaag: 7.3 km/h
67%
19:00
15°
1010.6 hPa
100%
10.5°
3
Windvlaag: 7.7 km/h
56%
20:00
15°
1010.7 hPa
100%
11.0°
3
Windvlaag: 1 km/h
56%
21:00
14°
1010.9 hPa 2.7 mm
100%
10.7°
3
Windvlaag: 7.3 km/h
34%
22:00
14°
1011.0 hPa
96%
10.4°
2
Windvlaag: 7.3 km/h
34%
23:00
13°
1011.1 hPa
45%
9.9°
2
Windvlaag: 4 km/h
34%
Midzomernacht Donderdag 20 Jun
00:00
12°
1011.2 hPa
27%
9.5°
1
Windvlaag: 0.4 km/h
35%
01:00
11°
1011.2 hPa
21%
9.0°
2
Windvlaag: 2.1 km/h
37%
Temp/Neerslag /Baro Onweer/Dauwpunt
    Temp Baro Neerslag Dauwpunt Wind Bewolking  
Midzomernacht Vandaag
02:00
13°
1010.3 hPa   9.5°
3
1%
05:00
12°
1011.2 hPa   8.6°
3
3%
08:00
13°
1011.3 hPa   7.6°
3
12%
11:00
14°
1011.3 hPa   6.3°
4
50%
14:00
15°
1011.6 hPa   6.0°
5
37%
17:00
13°
1011.8 hPa   7.1°
5
78%
20:00
12°
1011.3 hPa   8.7°
3
82%
23:00
11°
1010.8 hPa   9.2°
1
53%
Midzomernacht Morgen
02:00
10°
1010.0 hPa   8.2°
1
30%
05:00
10°
1009.2 hPa   7.8°
1
45%
08:00
12°
1008.6 hPa   7.3°
1
25%
11:00
15°
1008.4 hPa 0.5 mm 7.0°
2
56%
14:00
16°
1007.6 hPa   6.1°
3
54%
17:00
16°
1007.6 hPa   7.9°
3
16%
20:00
15°
1007.0 hPa   7.9°
2
37%
23:00
13°
1007.6 hPa   8.3°
3
45%
Midzomernacht Woensdag 19 Jun
02:00
11°
1007.7 hPa   9.6°
2
79%
05:00
11°
1007.8 hPa   8.9°
3
78%
08:00
12°
1008.2 hPa   8.4°
3
92%
11:00
14°
1009.5 hPa   7.4°
4
71%
14:00
15°
1009.9 hPa 5.3 mm 6.1°
4
69%
17:00
15°
1010.4 hPa 8.2 mm 9.0°
4
73%
20:00
15°
1010.7 hPa 2.7 mm 11.0°
3
56%
23:00
13°
1011.1 hPa 2.7 mm 9.9°
2
34%
Midzomernacht Donderdag 20 Jun
02:00
10°
1011.2 hPa   8.7°
2
55%
05:00
13°
1010.0 hPa 7.4 mm 9.8°
3
72%
08:00
15°
1009.1 hPa 7.4 mm 9.9°
3
75%
11:00
17°
1006.7 hPa 7.4 mm 10.9°
4
83%
14:00
18°
1004.2 hPa 7.4 mm 11.7°
5
92%
17:00
18°
1003.2 hPa 7.4 mm 13.5°
4
92%
20:00
18°
1002.1 hPa 8.7 mm 15.3°
4
92%
23:00
16°
1002.4 hPa 9.5 mm 14.4°
3
92%
Midzomernacht Vrijdag 21 Jun
02:00
14°
1002.8 hPa 10.3 mm 13.3°
2
92%
05:00
14°
1004.7 hPa 10.4 mm 12.0°
3
91%
08:00
13°
1006.6 hPa 10.7 mm 10.7°
4
90%
11:00
15°
1007.3 hPa 11.0 mm 11.5°
4
90%
14:00
17°
1007.9 hPa 11.2 mm 12.2°
4
90%
17:00
17°
1007.3 hPa 11.3 mm 12.7°
3
91%
20:00
16°
1006.7 hPa 11.3 mm 13.0°
3
91%
23:00
14°
1006.6 hPa 11.3 mm 12.1°
2
91%
Midzomernacht Zaterdag 22 Jun
02:00
12°
1006.4 hPa 11.3 mm 11.0°
2
92%
05:00
12°
1005.5 hPa 11.3 mm 10.7°
3
92%
08:00
12°
1004.7 hPa 11.3 mm 10.4°
4
92%
11:00
13°
1006.0 hPa 11.3 mm 10.9°
4
92%
14:00
14°
1007.5 hPa 11.4 mm 11.4°
5
92%
17:00
13°
1008.8 hPa 12.3 mm 10.8°
5
92%
20:00
12°
1010.3 hPa 13.2 mm 10.3°
5
92%
23:00
11°
1011.3 hPa 13.4 mm 9.4°
5
92%
Midzomernacht Zondag 23 Jun
02:00
Voelt als: 7.0°
1012.4 hPa 14.3 mm 8.6°
4
92%
05:00
10°
Voelt als: 7.4°
1013.4 hPa 14.6 mm 8.6°
5
91%
08:00
10°
1014.4 hPa 14.7 mm 8.5°
5
91%
11:00
12°
1016.1 hPa 14.9 mm 9.8°
5
91%
14:00
14°
1017.9 hPa 15.2 mm 11.1°
5
91%
17:00
13°
1018.3 hPa 15.5 mm 10.4°
5
91%
20:00
12°
1018.7 hPa 15.7 mm 9.7°
5
90%
23:00
11°
1020.6 hPa   9.1°
3
87%
Midzomernacht Maandag 24 Jun
02:00
10°
Voelt als: 8.9°
1022.6 hPa 31.8 mm 8.3°
2
83%
08:00
11°
1023.8 hPa 32.1 mm 7.6°
3
82%
14:00
14°
1023.1 hPa 34.4 mm 9.3°
3
90%
20:00
14°
1022.2 hPa 36.2 mm 9.3°
3
81%
Midzomernacht Dinsdag 25 Jun
02:00
Voelt als: 8.7°
1023.0 hPa 36.4 mm 7.7°
2
83%
08:00
12°
1022.3 hPa 36.9 mm 8.0°
2
83%
14:00
16°
1022.6 hPa 38.2 mm 9.9°
3
91%
20:00
16°
1021.7 hPa 38.5 mm 10.8°
3
78%
Midzomernacht Woensdag 26 Jun
02:00
10°
1021.6 hPa 38.6 mm 8.9°
2
74%
08:00
11°
1022.2 hPa 38.6 mm 7.7°
3
90%
14:00
16°
1017.0 hPa 38.6 mm 2.3°
1
0%
20:00
14°
1017.5 hPa 0.9 mm 8.7°
2
66%
Midzomernacht Donderdag 27 Jun
02:00
11°
1017.3 hPa 0.3 mm 8.5°
1
61%
08:00
13°
1015.5 hPa 0.6 mm 7.8°
0
60%
14:00
17°
1013.8 hPa 0.9 mm 7.8°
1
56%
20:00
16°
1012.2 hPa 1.4 mm 9.1°
1
59%
Midzomernacht Vrijdag 28 Jun
02:00
12°
1011.7 hPa 1.1 mm 9.3°
0
54%
08:00
14°
1010.2 hPa 0.8 mm 9.2°
1
56%
14:00
17°
1009.0 hPa 1.5 mm 9.0°
1
59%
20:00
16°
1008.0 hPa 1.5 mm 9.2°
2
64%
Midzomernacht Zaterdag 29 Jun
02:00
12°
1008.0 hPa 0.5 mm 9.3°
1
57%
08:00
14°
1007.3 hPa 1.0 mm 9.0°
0
60%
14:00
16°
1007.2 hPa 2.1 mm 9.3°
2
66%
20:00
15°
1007.2 hPa 2.8 mm 9.8°
2
68%
Midzomernacht Zondag 30 Jun
02:00
12°
1007.6 hPa 2.0 mm 9.7°
1
60%
08:00
13°
1006.8 hPa 1.7 mm 9.8°
1
72%
14:00
17°
1006.4 hPa 1.5 mm 10.3°
1
72%
20:00
16°
1006.5 hPa 1.6 mm 10.7°
1
66%
 01:16         Daglengte: 433535:16 Maandag 01 Jul
02:00
12°
1007.4 hPa 1.3 mm 10.4°
1
60%
08:00
14°
1007.5 hPa 1.3 mm 9.8°
1
64%
14:00
16°
1008.4 hPa 0.5 mm 9.4°
2
64%
20:00
15°
1009.1 hPa 0.8 mm 8.9°
2
60%
  CAPE Lifted Index Hail Supercell Tornado SRH 3km CL BTM PRES CL TOP PRES Swiss DWD icon SMHI TS
Midzomernacht Vandaag
02:00 0 J/kg 5.8 K 0 % 0 % 0 % 0 m²/s² 0 0 9.82 1
03:00 0 J/kg 6.2 K 0 % 0 % 0 % 0 m²/s² 0 0 9.83 2
04:00 0 J/kg 7.1 K 0 % 0 % 0 % 0 m²/s² 0 0 10.64 2
05:00 0 J/kg 8.2 K 0 % 0 % 0 % 0 m²/s² 0 0 11.83 1
06:00 1 J/kg 9.3 K 0 % 0 % 0 % 0 m²/s² 0 0 12.75 2
07:00 1 J/kg 10.3 K 0 % 0 % 0 % 0 m²/s² 0 0 13.3 2
08:00 0 J/kg 10.6 K 0 % 0 % 0 % 0 m²/s² 0 0 12.79 3
09:00 0 J/kg 10.3 K 0 % 0 % 0 % 0 m²/s² 0 0 11.68 2
10:00 0 J/kg 8.8 K 0 % 0 % 0 % 0 m²/s² 0 0 9.79 2
11:00 0 J/kg 8.1 K 0 % 0 % 0 % 0 m²/s² 0 0 8.85 3
12:00 0 J/kg 8.1 K 0 % 0 % 0 % 0 m²/s² 0 0 8.67 2
13:00 0 J/kg 8.2 K 0 % 0 % 0 % 0 m²/s² 0 0 8.71 2
14:00 0 J/kg 8.0 K 0 % 0 % 0 % 0 m²/s² 0 0 8.51 2
15:00 0 J/kg 7.7 K 0 % 0 % 0 % 0 m²/s² 0 0 8.09 61
16:00 0 J/kg 7.9 K 0 % 0 % 0 % 0 m²/s² 0 0 8.23 61
17:00 0 J/kg 8.4 K 0 % 0 % 0 % 0 m²/s² 0 0 8.79 61
18:00 0 J/kg 8.5 K 0 % 0 % 0 % 0 m²/s² 0 0 9.22 61
19:00 0 J/kg 6.3 K 0 % 0 % 0 % 0 m²/s² 0 0 7.47 3
20:00 0 J/kg 4.7 K 0 % 0 % 0 % 0 m²/s² 0 0 5.96 3
21:00 0 J/kg 5.0 K 0 % 0 % 0 % 0 m²/s² 0 0 6.11 3
22:00 0 J/kg 4.8 K 0 % 0 % 0 % 0 m²/s² 0 0 6.33 3
23:00 0 J/kg 4.8 K 0 % 0 % 0 % 0 m²/s² 0 0 7.44 3
Midzomernacht Morgen
00:00 0 J/kg 5.0 K 0 % 0 % 0 % 0 m²/s² 0 0 9.59 3
01:00 0 J/kg 5.5 K 0 % 0 % 0 % 0 m²/s² 0 0 9.76 3
02:00 0 J/kg 5.2 K 0 % 0 % 0 % 0 m²/s² 0 0 8.23 2
03:00 0 J/kg 5.2 K 0 % 0 % 0 % 0 m²/s² 0 0 6.73 2
04:00 0 J/kg 5.4 K 0 % 0 % 0 % 0 m²/s² 0 0 6.09 2
05:00 0 J/kg 4.6 K 0 % 0 % 0 % 0 m²/s² 0 0 4.81 3
06:00 0 J/kg 4.6 K 0 % 0 % 0 % 0 m²/s² 0 0 4.93 3
07:00 0 J/kg 3.4 K 0 % 0 % 0 % 0 m²/s² 0 0 3.7 3
08:00 0 J/kg 2.8 K 0 % 0 % 0 % 0 m²/s² 0 0 3.34 3
09:00 14 J/kg 1.6 K 0 % 0 % 0 % 0 m²/s² 0 0 2.17 80
10:00 62 J/kg 0.3 K 0 % 0 % 0 % 0 m²/s² 0 0 1.44 3
11:00 119 J/kg -0.1 K 0 % 0 % 0 % 0 m²/s² 0 0 0.38 61
12:00 63 J/kg 0.9 K 0 % 0 % 0 % 0 m²/s² 0 0 1.11 61
13:00 28 J/kg 0.6 K 0 % 0 % 0 % 0 m²/s² 0 0 3.36 1
14:00 201 J/kg -0.8 K 0 % 0 % 0 % 0 m²/s² 0 0 1.6 3
15:00 316 J/kg -1.1 K 0 % 0 % 0 % 0 m²/s² 0 0 0.91 3
16:00 267 J/kg -1.5 K 0 % 0 % 0 % 0 m²/s² 0 0 0.45 1
17:00 229 J/kg -1.0 K 0 % 0 % 0 % 0 m²/s² 0 0 -0.07 0
18:00 250 J/kg -1.0 K 0 % 0 % 0 % 0 m²/s² 0 0 0.41 1
19:00 273 J/kg -1.0 K 0 % 0 % 0 % 0 m²/s² 0 0 0.89 2
20:00 263 J/kg -0.9 K 0 % 0 % 0 % 0 m²/s² 0 0 1.38 3
21:00 145 J/kg -0.3 K 0 % 0 % 0 % 0 m²/s² 0 0 1.59 2
22:00 145 J/kg -0.4 K 0 % 0 % 0 % 0 m²/s² 0 0 1.25 1
23:00 9 J/kg 0.5 K 0 % 0 % 0 % 0 m²/s² 0 0 3.14 3
Midzomernacht Woensdag 19 Jun
00:00 0 J/kg 0.9 K 0 % 0 % 0 % 0 m²/s² 0 0 4.02 2
01:00 0 J/kg 1.3 K 0 % 0 % 0 % 0 m²/s² 0 0 3.64 80
02:00 1 J/kg 1.3 K 0 % 0 % 0 % 0 m²/s² 0 0 3.19 3
03:00 15 J/kg 1.3 K 0 % 0 % 0 % 0 m²/s² 0 0 2.83 2
04:00 15 J/kg 2.0 K 0 % 0 % 0 % 0 m²/s² 0 0 2.84 2
05:00 13 J/kg 2.1 K 0 % 0 % 0 % 0 m²/s² 0 0 3.09 2
06:00 6 J/kg 1.7 K 0 % 0 % 0 % 0 m²/s² 0 0 2.27 3
07:00 39 J/kg 1.1 K 0 % 0 % 0 % 0 m²/s² 0 0 1.88 3
08:00 64 J/kg 0.6 K 0 % 0 % 0 % 0 m²/s² 0 0 1.29 2
09:00 167 J/kg 0.0 K 0 % 0 % 0 % 0 m²/s² 0 0 0.51 1
10:00 258 J/kg -0.5 K 0 % 0 % 0 % 0 m²/s² 0 0 0.46 3
11:00 189 J/kg -0.2 K 0 % 0 % 0 % 0 m²/s² 0 0 0.19 3
12:00 277 J/kg -0.5 K 0 % 0 % 0 % 0 m²/s² 0 0 0.55 3
13:00 274 J/kg -0.1 K 0 % 0 % 0 % 0 m²/s² 0 0 1.25 80
14:00 267 J/kg 0.2 K 0 % 0 % 0 % 0 m²/s² 0 0 1.82 80
15:00 246 J/kg 0.4 K 0 % 0 % 0 % 0 m²/s² 0 0 1.6 80
16:00 247 J/kg 0.5 K 0 % 0 % 0 % 0 m²/s² 0 0 1.52 80
17:00 219 J/kg 0.8 K 0 % 0 % 0 % 0 m²/s² 0 0 2.18 80
18:00 194 J/kg 1.0 K 0 % 0 % 0 % 0 m²/s² 0 0 2.71 61
19:00 132 J/kg 1.7 K 0 % 0 % 0 % 0 m²/s² 0 0 4.34 3
20:00 47 J/kg 2.8 K 0 % 0 % 0 % 0 m²/s² 0 0 5.77 3
21:00 20 J/kg 3.3 K 0 % 0 % 0 % 0 m²/s² 0 0 5.79 2
22:00 1 J/kg 4.2 K 0 % 0 % 0 % 0 m²/s² 0 0 6.12 2
23:00 0 J/kg 4.1 K 0 % 0 % 0 % 0 m²/s² 0 0 5.6 2
Midzomernacht Donderdag 20 Jun
00:00 0 J/kg 4.1 K 0 % 0 % 0 % 0 m²/s² 0 0 5.51 1
01:00 0 J/kg 4.3 K 0 % 0 % 0 % 0 m²/s² 0 0 5.98 2
Temp Baro Wind Neerslag
  EWN Forecast EWN WRFDA DWD ICON FMI HIRLAM MET Norway GFS
Midzomernacht Vandaag
02:00 13.3° 1010.3 hPa 3.1 m/s 0.0 mm 12.2° 1007.8 hPa 4.7 m/s 0.0 mm 13.0° 1010.6 hPa 2.0 m/s -2.0 mm 12.8° 1011.5 hPa 3.5 m/s 0.0 mm 14.3° 1009.7 hPa 3.2 m/s 0.0 mm 13.6° 1009.2 hPa 2.3 m/s
05:00 12.1° 1011.2 hPa 3.5 m/s 0.0 mm 10.6° 1008.6 hPa 4.9 m/s 0.0 mm 12.0° 1011.4 hPa 1.8 m/s 0.0 mm 11.5° 1011.9 hPa 3.4 m/s 0.0 mm 13.2° 1011.0 hPa 5.2 m/s 0.0 mm 12.0° 1009.9 hPa 2.9 m/s
08:00 12.8° 1011.3 hPa 2.9 m/s 0.0 mm 11.4° 1009.0 hPa 4.5 m/s 0.0 mm 12.7° 1010.7 hPa 2.2 m/s 0.0 mm 11.8° 1011.4 hPa 2.5 m/s 0.0 mm 13.8° 1011.5 hPa 4.9 m/s 0.0 mm 12.7° 1010.1 hPa 3.1 m/s
11:00 14.2° 1011.3 hPa 4.0 m/s 0.0 mm 14.7° 1009.2 hPa 5.3 m/s 0.0 mm 13.7° 1011.5 hPa 3.8 m/s 0.0 mm 14.1° 1011.1 hPa 2.1 m/s 0.0 mm 14.9° 1011.3 hPa 6.1 m/s 0.0 mm 13.3° 1010.5 hPa 3.4 m/s
14:00 15.2° 1011.6 hPa 5.3 m/s 0.0 mm 15.5° 1008.9 hPa 6.0 m/s 0.0 mm 13.9° 1012.0 hPa 5.5 m/s 0.0 mm 15.8° 1011.0 hPa 3.5 m/s 0.0 mm 15.6° 1011.8 hPa 6.7 m/s 0.0 mm 15.3° 1010.4 hPa 3.4 m/s
17:00 13.1° 1011.8 hPa 4.5 m/s 0.0 mm 14.8° 1009.8 hPa 6.1 m/s 0.0 mm 11.8° 1011.7 hPa 3.1 m/s 0.3 mm 13.6° 1010.5 hPa 4.1 m/s 0.0 mm 13.0° 1012.4 hPa 7.1 m/s 0.0 mm 15.6° 1010.6 hPa 3.8 m/s
20:00 11.5° 1011.3 hPa 3.2 m/s 0.0 mm 12.6° 1009.1 hPa 4.6 m/s 0.0 mm 11.3° 1011.1 hPa 3.2 m/s 0.2 mm 11.6° 1009.8 hPa 3.2 m/s 0.0 mm 11.2° 1012.0 hPa 3.3 m/s 0.0 mm 13.2° 1009.7 hPa 3.1 m/s
23:00 10.9° 1010.8 hPa 1.0 m/s 0.0 mm 11.5° 1008.3 hPa 1.4 m/s 0.0 mm 10.3° 1010.9 hPa 1.5 m/s 0.0 mm 10.4° 1009.0 hPa 1.4 m/s 0.0 mm 11.4° 1011.5 hPa 0.6 m/s 0.0 mm 11.3° 1010.2 hPa 1.6 m/s
Midzomernacht Morgen
02:00 9.9° 1010.0 hPa 1.2 m/s 0.0 mm 9.1° 1008.3 hPa 1.1 m/s 0.0 mm 10.1° 1009.8 hPa 0.7 m/s 0.0 mm 10.3° 1007.5 hPa 0.4 m/s 0.0 mm 9.9° 1011.1 hPa 3.1 m/s 0.0 mm 9.4° 1009.8 hPa 0.5 m/s
05:00 10.3° 1009.2 hPa 1.0 m/s 0.0 mm 11.3° 1008.0 hPa 0.7 m/s 0.1 mm 10.3° 1008.7 hPa 0.7 m/s 0.0 mm 10.3° 1005.9 hPa 0.8 m/s 0.0 mm 10.5° 1010.7 hPa 1.8 m/s 0.0 mm 10.9° 1009.3 hPa 0.3 m/s
08:00 12.0° 1008.6 hPa 1.0 m/s 0.0 mm 13.7° 1006.6 hPa 0.2 m/s 1.3 mm 11.7° 1008.2 hPa 2.0 m/s 0.0 mm 11.8° 1004.5 hPa 1.0 m/s 0.0 mm 13.5° 1009.7 hPa 1.1 m/s 0.0 mm 13.2° 1008.1 hPa 1.6 m/s
11:00 14.7° 1008.4 hPa 2.5 m/s 0.5 mm 14.0° 1006.5 hPa 4.6 m/s 1.3 mm 12.2° 1008.4 hPa 2.0 m/s 0.8 mm 15.6° 1003.9 hPa 2.4 m/s 0.0 mm 16.8° 1009.3 hPa 3.4 m/s 0.0 mm 15.7° 1008.1 hPa 2.6 m/s
14:00 16.3° 1007.6 hPa 3.0 m/s 0.0 mm 15.9° 1006.5 hPa 2.6 m/s 13.0 mm 14.8° 1008.3 hPa 3.1 m/s 0.1 mm 17.0° 1004.0 hPa 3.7 m/s 0.0 mm 17.9° 1007.9 hPa 3.1 m/s 0.0 mm 13.2° 1007.9 hPa 2.1 m/s
17:00 16.1° 1007.6 hPa 2.8 m/s 0.0 mm 17.8° 1006.2 hPa 6.7 m/s 15.3 mm 15.9° 1007.5 hPa 2.8 m/s 0.0 mm 16.6° 1004.7 hPa 4.1 m/s 0.0 mm 16.0° 1008.5 hPa 2.5 m/s 0.8 mm 15.6° 1008.3 hPa 2.9 m/s
20:00 15.1° 1007.0 hPa 2.3 m/s 0.0 mm 16.3° 1005.1 hPa 5.1 m/s 15.3 mm 14.7° 1007.2 hPa 2.8 m/s 0.0 mm 14.1° 1004.5 hPa 2.3 m/s 0.0 mm 16.2° 1007.9 hPa 2.2 m/s 0.0 mm 14.8° 1007.4 hPa 2.6 m/s
23:00 13.1° 1007.6 hPa 2.9 m/s 0.0 mm 12.9° 1005.9 hPa 3.1 m/s 15.5 mm 12.2° 1007.8 hPa 1.4 m/s 0.1 mm 14.5° 1008.1 hPa 4.4 m/s 0.0 mm 12.1° 1007.6 hPa 0.5 m/s
Midzomernacht Woensdag 19 Jun
02:00 11.4° 1007.7 hPa 2.1 m/s 0.0 mm 11.4° 1005.6 hPa 0.4 m/s 15.5 mm 11.0° 1007.8 hPa 1.8 m/s 0.5 mm 11.6° 1009.0 hPa 4.2 m/s 0.0 mm 10.7° 1007.0 hPa 1.0 m/s
05:00 11.3° 1007.8 hPa 2.9 m/s 0.0 mm 12.0° 1005.8 hPa 3.0 m/s 15.7 mm 10.6° 1007.9 hPa 1.1 m/s 0.0 mm 11.5° 1009.4 hPa 4.6 m/s 0.0 mm 11.6° 1007.5 hPa 2.6 m/s
08:00 11.9° 1008.2 hPa 2.9 m/s 0.0 mm 14.0° 1005.2 hPa 5.0 m/s 15.8 mm 11.8° 1008.3 hPa 1.8 m/s 0.0 mm 11.9° 1009.8 hPa 3.2 m/s 0.0 mm 10.7° 1007.2 hPa 1.2 m/s
11:00 13.5° 1009.5 hPa 3.8 m/s 0.0 mm 12.6° 1006.3 hPa 5.3 m/s 18.1 mm 13.2° 1008.8 hPa 3.1 m/s 0.2 mm 14.0° 1010.7 hPa 3.8 m/s 0.0 mm 12.2° 1008.5 hPa 1.5 m/s
14:00 15.2° 1009.9 hPa 4.1 m/s 5.3 mm 14.7° 1006.7 hPa 5.7 m/s 20.5 mm 12.7° 1009.6 hPa 2.9 m/s 1.1 mm 16.2° 1010.7 hPa 4.1 m/s 0.0 mm 14.2° 1008.9 hPa 3.6 m/s
17:00 15.2° 1010.4 hPa 3.5 m/s 8.2 mm 15.1° 1007.7 hPa 4.8 m/s 22.7 mm 12.3° 1010.4 hPa 3.4 m/s 1.0 mm 16.1° 1011.0 hPa 3.4 m/s 13.4° 1009.7 hPa 3.0 m/s
20:00 15.0° 1010.7 hPa 2.9 m/s 2.7 mm 15.2° 1006.9 hPa 5.0 m/s 23.4 mm 11.7° 1010.9 hPa 2.4 m/s 0.2 mm 15.9° 1011.3 hPa 2.7 m/s 12.8° 1009.8 hPa 2.8 m/s
23:00 12.6° 1011.1 hPa 1.8 m/s 2.7 mm 12.3° 1007.9 hPa 1.2 m/s 23.5 mm 10.7° 1012.0 hPa 1.3 m/s 0.2 mm 13.4° 1011.4 hPa 2.4 m/s 11.5° 1011.1 hPa 1.2 m/s
Midzomernacht Donderdag 20 Jun
02:00 10.4° 1011.2 hPa 1.8 m/s 0.0 mm 10.2° 1007.0 hPa 2.0 m/s 23.5 mm 9.4° 1012.5 hPa 0.8 m/s 0.0 mm 10.9° 1011.5 hPa 2.0 m/s 11.8° 1010.5 hPa 1.2 m/s
05:00 13.4° 1010.0 hPa 2.7 m/s 7.4 mm 13.5° 1010.0 hPa 2.8 m/s 12.0° 1010.4 hPa 1.4 m/s 7.4 mm
08:00 14.8° 1009.1 hPa 3.1 m/s 7.4 mm 14.8° 1009.2 hPa 3.2 m/s 14.3° 1008.3 hPa 2.1 m/s 7.4 mm
11:00 16.8° 1006.7 hPa 4.1 m/s 7.4 mm 16.6° 1006.8 hPa 4.2 m/s 19.1° 1006.2 hPa 4.1 m/s 7.4 mm
14:00 18.3° 1004.2 hPa 5.0 m/s 7.4 mm 18.3° 1004.3 hPa 5.1 m/s 18.1° 1003.3 hPa 3.8 m/s 7.4 mm
17:00 18.2° 1003.2 hPa 4.3 m/s 7.4 mm 18.2° 1003.3 hPa 4.4 m/s 18.1° 1001.7 hPa 3.2 m/s 7.4 mm
20:00 18.0° 1002.1 hPa 3.7 m/s 8.7 mm 18.2° 1002.3 hPa 3.8 m/s 15.5° 999.3 hPa 2.2 m/s 8.7 mm
23:00 16.1° 1002.4 hPa 3.1 m/s 9.5 mm 16.2° 1002.7 hPa 3.1 m/s 15.1° 999.2 hPa 2.0 m/s 9.5 mm
Midzomernacht Vrijdag 21 Jun
02:00 14.3° 1002.8 hPa 2.4 m/s 10.3 mm 14.2° 1003.1 hPa 2.5 m/s 14.9° 999.7 hPa 1.2 m/s 10.3 mm
05:00 13.7° 1004.7 hPa 3.1 m/s 10.4 mm 13.8° 1005.0 hPa 3.0 m/s 12.4° 1001.2 hPa 4.0 m/s 10.4 mm
08:00 13.4° 1006.6 hPa 3.5 m/s 10.7 mm 13.5° 1007.0 hPa 3.5 m/s 12.2° 1002.5 hPa 3.7 m/s 10.7 mm
11:00 15.2° 1007.3 hPa 3.6 m/s 11.0 mm 15.6° 1007.5 hPa 3.6 m/s 11.1° 1005.2 hPa 3.5 m/s 11.0 mm
14:00 17.1° 1007.9 hPa 3.7 m/s 11.2 mm 17.6° 1007.9 hPa 3.7 m/s 11.9° 1007.3 hPa 3.8 m/s 11.2 mm
17:00 16.7° 1007.3 hPa 3.3 m/s 11.3 mm 17.1° 1007.2 hPa 3.3 m/s 12.9° 1008.8 hPa 3.1 m/s 11.3 mm
20:00 16.3° 1006.7 hPa 2.8 m/s 11.3 mm 16.6° 1006.5 hPa 2.9 m/s 12.7° 1009.3 hPa 1.9 m/s 11.3 mm
23:00 14.0° 1006.6 hPa 2.3 m/s 11.3 mm 14.4° 1006.3 hPa 2.5 m/s 10.2° 1009.9 hPa 0.2 m/s 11.3 mm
Midzomernacht Zaterdag 22 Jun
02:00 11.8° 1006.4 hPa 2.0 m/s 11.3 mm 12.1° 1006.1 hPa 2.1 m/s 8.6° 1009.8 hPa 0.7 m/s 11.3 mm
05:00 11.8° 1005.5 hPa 2.8 m/s 11.3 mm 11.8° 1005.2 hPa 3.0 m/s 11.0° 1009.3 hPa 0.7 m/s 11.3 mm
08:00 11.7° 1004.7 hPa 3.7 m/s 11.3 mm 11.6° 1004.3 hPa 4.0 m/s 13.1° 1008.8 hPa 0.1 m/s 11.3 mm
11:00 12.9° 1006.0 hPa 4.3 m/s 11.3 mm 12.7° 1005.8 hPa 4.6 m/s 14.8° 1009.2 hPa 1.2 m/s 11.3 mm
14:00 13.7° 1007.5 hPa 5.1 m/s 11.4 mm 13.8° 1007.2 hPa 5.2 m/s 12.7° 1010.4 hPa 4.3 m/s 11.4 mm
17:00 13.0° 1008.8 hPa 5.0 m/s 12.3 mm 13.2° 1008.6 hPa 5.2 m/s 11.4° 1011.5 hPa 3.1 m/s 12.3 mm
20:00 12.2° 1010.3 hPa 5.0 m/s 13.2 mm 12.5° 1010.0 hPa 5.1 m/s 9.5° 1013.1 hPa 3.6 m/s 13.2 mm
23:00 10.9° 1011.3 hPa 4.6 m/s 13.4 mm 11.0° 1011.0 hPa 4.8 m/s 9.3° 1015.3 hPa 1.4 m/s 13.4 mm
Midzomernacht Zondag 23 Jun
02:00 9.4° 1012.4 hPa 4.5 m/s 14.3 mm 9.5° 1011.9 hPa 4.6 m/s 8.3° 1017.4 hPa 3.2 m/s 14.3 mm
05:00 9.7° 1013.4 hPa 4.6 m/s 14.6 mm 9.8° 1012.9 hPa 4.8 m/s 8.3° 1018.4 hPa 2.9 m/s 14.6 mm
08:00 10.1° 1014.4 hPa 4.6 m/s 14.7 mm 10.2° 1013.9 hPa 4.9 m/s 9.3° 1019.4 hPa 1.8 m/s 14.7 mm
11:00 12.0° 1016.1 hPa 4.8 m/s 14.9 mm 12.0° 1015.8 hPa 5.1 m/s 11.7° 1019.4 hPa 1.5 m/s 14.9 mm
14:00 13.7° 1017.9 hPa 5.0 m/s 15.2 mm 13.8° 1017.7 hPa 5.2 m/s 12.3° 1019.8 hPa 2.4 m/s 15.2 mm
17:00 13.0° 1018.3 hPa 4.8 m/s 15.5 mm 13.1° 1018.2 hPa 5.0 m/s 12.2° 1019.6 hPa 3.2 m/s 15.5 mm
20:00 12.2° 1018.7 hPa 4.6 m/s 15.7 mm 12.3° 1018.6 hPa 4.8 m/s 11.5° 1019.8 hPa 1.8 m/s 15.7 mm
23:00 10.9° 1020.6 hPa 3.3 m/s 15.9 mm 11.0° 1020.7 hPa 3.5 m/s 10.2° 1020.0 hPa 1.4 m/s 15.9 mm
Midzomernacht Maandag 24 Jun
02:00 9.7° 1022.6 hPa 2.0 m/s 15.9 mm 9.7° 1022.8 hPa 2.1 m/s 9.8° 1020.4 hPa 0.3 m/s 15.9 mm
08:00 10.6° 1023.8 hPa 3.1 m/s 16.1 mm 10.6° 1024.1 hPa 3.2 m/s 11.0° 1020.3 hPa 2.3 m/s 16.1 mm
14:00 14.3° 1023.1 hPa 3.3 m/s 17.8 mm 14.8° 1023.3 hPa 3.4 m/s 9.0° 1020.7 hPa 1.8 m/s 17.8 mm
20:00 14.3° 1022.2 hPa 2.9 m/s 18.1 mm 14.7° 1022.3 hPa 2.9 m/s 10.5° 1020.9 hPa 3.4 m/s 18.1 mm
Midzomernacht Dinsdag 25 Jun
02:00 9.5° 1023.0 hPa 1.8 m/s 18.2 mm 9.8° 1023.1 hPa 1.9 m/s 5.8° 1022.0 hPa 1.0 m/s 18.2 mm
08:00 12.2° 1022.3 hPa 2.3 m/s 18.6 mm 12.6° 1022.4 hPa 2.4 m/s 8.1° 1021.5 hPa 1.7 m/s 18.6 mm
14:00 15.8° 1022.6 hPa 3.2 m/s 19.2 mm 16.2° 1022.7 hPa 3.3 m/s 11.3° 1021.2 hPa 2.6 m/s 19.2 mm
20:00 16.1° 1021.7 hPa 3.2 m/s 19.3 mm 16.5° 1021.8 hPa 3.3 m/s 11.2° 1020.6 hPa 2.5 m/s 19.3 mm
Midzomernacht Woensdag 26 Jun
02:00 10.5° 1021.6 hPa 1.7 m/s 19.3 mm 10.9° 1021.7 hPa 1.8 m/s 5.8° 1020.9 hPa 0.6 m/s 19.3 mm
08:00 11.5° 1022.2 hPa 2.5 m/s 19.3 mm 11.6° 1022.5 hPa 2.6 m/s 9.9° 1019.0 hPa 1.4 m/s 19.3 mm
14:00 15.6° 1017.0 hPa 1.5 m/s 19.3 mm 15.6° 1017.0 hPa 1.5 m/s 19.3 mm
20:00 14.5° 1017.5 hPa 1.8 m/s 0.9 mm
Midzomernacht Donderdag 27 Jun
02:00 11.1° 1017.3 hPa 0.5 m/s 0.3 mm
08:00 13.1° 1015.5 hPa 0.4 m/s 0.6 mm
14:00 16.6° 1013.8 hPa 1.3 m/s 0.9 mm
20:00 15.8° 1012.2 hPa 1.3 m/s 1.4 mm
Midzomernacht Vrijdag 28 Jun
02:00 12.0° 1011.7 hPa 0.0 m/s 1.1 mm
08:00 14.1° 1010.2 hPa 0.5 m/s 0.8 mm
14:00 17.0° 1009.0 hPa 1.3 m/s 1.5 mm
20:00 15.7° 1008.0 hPa 1.6 m/s 1.5 mm
Midzomernacht Zaterdag 29 Jun
02:00 12.1° 1008.0 hPa 0.6 m/s 0.5 mm
08:00 13.9° 1007.3 hPa 0.4 m/s 1.0 mm
14:00 16.1° 1007.2 hPa 1.8 m/s 2.1 mm
20:00 14.8° 1007.2 hPa 1.9 m/s 2.8 mm
Midzomernacht Zondag 30 Jun
02:00 11.6° 1007.6 hPa 1.1 m/s 2.0 mm
08:00 13.4° 1006.8 hPa 0.8 m/s 1.7 mm
14:00 16.6° 1006.4 hPa 1.2 m/s 1.5 mm
20:00 15.7° 1006.5 hPa 1.5 m/s 1.6 mm
 01:16         Daglengte: 433535:16 Maandag 01 Jul
02:00 12.3° 1007.4 hPa 0.6 m/s 1.3 mm
08:00 13.8° 1007.5 hPa 0.8 m/s 1.3 mm
14:00 15.9° 1008.4 hPa 1.5 m/s 0.5 mm
20:00 14.6° 1009.1 hPa 1.6 m/s 0.8 mm
FMI Hirlam - 7.5 km EWN WRFDA - 12 km DWD ICON - 7 km GFS - 25 km Basiskaart






























































Updatetijd (Europe/Amsterdam) Resolutie Lengte Stap
FMI Hirlam 01:15, 07:15, 13:15, 19:15 7.5 km 49h 1h
EWN WRFDA 22:15, 04:15, 10:15, 16:15 12 km 73h 1h
DWD ICON 23:45, 05:45, 11:45, 17:45 7 km 75h 1h
GFS 20:30, 02:30, 08:30, 14:30 25 km 237h 3h
30+ mm
25-30 mm
20-25 mm
15-20 mm
10-15 mm
6-10 mm
4-6 mm
2-4 mm
1-2 mm
0.5-1 mm
0.2-0.5 mm
0.1-0.2 mm
30+ mm
25-30 mm
20-25 mm
15-20 mm
10-15 mm
6-10 mm
4-6 mm
2-4 mm
1-2 mm
0.5-1 mm
0.2-0.5 mm
0.1-0.2 mm
Sneeuwval
Natte sneeuw
Hagel
Vorst
30+ mm
25-30 mm
20-25 mm
15-20 mm
10-15 mm
6-10 mm
4-6 mm
2-4 mm
1-2 mm
0.5-1 mm
0.2-0.5 mm
0.1-0.2 mm
Sneeuwval
Natte sneeuw
Hagel
Vorst
Onweer
50 mm
40 mm
30 mm
26 mm
22 mm
18 mm
14 mm
10 mm
9 mm
8 mm
7 mm
6 mm
5 mm
4.5 mm
4 mm
3.5 mm
3 mm
2.5 mm
2 mm
1.5 mm
1 mm
0.8 mm
0.6 mm
0.4 mm
0.2 mm
0.05 mm
35°
30°
25°
20°
15°
10°
-5°
-10°
-15°
-20°
-25°
-30°
-35°
120> km/h
105 km/h
90 km/h
75 km/h
60 km/h
50 km/h
40 km/h
30 km/h
20 km/h
10 km/h
0 km/h
2600 J/kg
2400 J/kg
2200 J/kg
2000 J/kg
1800 J/kg
1600 J/kg
1400 J/kg
1200 J/kg
1000 J/kg
800 J/kg
600 J/kg
400 J/kg
200 J/kg
70 dBZ
65 dBZ
60 dBZ
55 dBZ
50 dBZ
45 dBZ
40 dBZ
35 dBZ
30 dBZ
25 dBZ
20 dBZ
15 dBZ
10 dBZ
5 dBZ
-1 K
-2 K
-3 K
-4 K
-5 K
-6 K
-7 K
-8 K
-9 K
950 m²/s²
900 m²/s²
850 m²/s²
800 m²/s²
750 m²/s²
700 m²/s²
650 m²/s²
600 m²/s²
550 m²/s²
500 m²/s²
450 m²/s²
400 m²/s²
350 m²/s²
300 m²/s²
250 m²/s²
200 m²/s²
150 m²/s²
100 m²/s²
46 m/s
44 m/s
42 m/s
40 m/s
38 m/s
36 m/s
34 m/s
32 m/s
30 m/s
28 m/s
26 m/s
24 m/s
22 m/s
20 m/s
16 m/s
12 m/s
8 m/s
4 m/s
30 m/s
28 m/s
26 m/s
24 m/s
22 m/s
20 m/s
18 m/s
16 m/s
14 m/s
12 m/s
10 m/s
8 m/s
6 m/s
4 m/s
2 m/s
3.0
2.8
2.6
2.4
2.2
2.0
1.8
1.6
1.4
1.2
1.0
0.8
0.6
0.4
0.2
15
14
13
12
11
10
9
8
7
6
5
4
3
2
1
90%
80%
70%
60%
50%
40%
30%
20%
10%
42
40
38
36
34
32
30
28
26
24
22
20
18
16
14
12
90+ cm
80-90 cm
70-80 cm
60-70 cm
50-60 cm
40-50 cm
30-40 cm
20-30 cm
10-20 cm
1-10 cm
Sneeuwval
Natte sneeuw
Regen
>120 mm
115 mm
110 mm
105 mm
100 mm
95 mm
90 mm
85 mm
80 mm
75 mm
70 mm
65 mm
60 mm
55 mm
50 mm
45 mm
45 mm
40 mm
35 mm
30 mm
25 mm
20 mm
15 mm
10 mm
5 mm
0.1 mm
960 hPa
880 hPa
800 hPa
720 hPa
640 hPa
560 hPa